Philip, SD

5:17 AM MST on January 23, 2018 (GMT -0700)
Philip

Weather History for KPHP - February, 2013

Change the Weather History Date:

Friday, February 22, 2013

  Actual Average Record
Temperature  
Mean Temperature 18 °F 27 °F  
Max Temperature 29 °F 40 °F 69 °F (2002)
Min Temperature 7 °F 14 °F -22 °F (1957)
Degree Days  
Heating Degree Days 47 38  
Month to date heating degree days 778 880  
Since 1 July heating degree days 4813 5145  
Cooling Degree Days 0 0  
Month to date cooling degree days 0 0  
Year to date cooling degree days 0 0  
Moisture  
Dew Point 14 °F    
Average Humidity 82    
Maximum Humidity 96    
Minimum Humidity 68    
Precipitation  
Precipitation T in 0.03 in 0.04 in (1965)
Month to date precipitation 0.28 0.31  
Year to date precipitation 0.81 0.61  
Sea Level Pressure  
Sea Level Pressure 30.01 in    
Wind  
Wind Speed 3 mph (SSE)    
Max Wind Speed 9 mph    
Max Gust Speed 10 mph    
Visibility 8 miles    
Events Snow    
T = Trace of Precipitation, MM = Missing Value Source: NWS Daily Summary

Daily Weather History Graph

Daily Weather History Graph

Search for Another Location

Airport or City:

Trip Planner

Search our weather history database for the weather conditions in past years. The results will help you decide how hot, cold, wet, or windy it might be!

Date:

Astronomy

Feb. 22, 2013 Rise Set
Actual Time 6:34 AM MST 5:25 PM MST
Civil Twilight 6:05 AM MST 5:55 PM MST
Nautical Twilight 5:31 AM MST 6:28 PM MST
Astronomical Twilight 4:58 AM MST 7:02 PM MST
Moon 2:35 PM MST (2/22) 4:25 AM MST (2/22)
Length of Visible Light 11h 50m
Length of Day
10h 51m
Waxing Gibbous, 90% of the Moon is Illuminated
Feb 22
Waxing Gibbous
Feb 25
Full
Mar 4
Last Quarter
Mar 11
New
Mar 19
First Quarter

Hourly Weather History & Observations

Time (MST) Temp. Windchill Dew Point Humidity Pressure Visibility Wind Dir Wind Speed Gust Speed Precip Events Conditions
12:05 AM 15.8 °F - 14.0 °F 93% 29.99 in 2.5 mi Calm Calm - 0.00 in Snow Light Snow
12:19 AM 15.8 °F - 12.2 °F 86% 29.99 in 3.0 mi Calm Calm - 0.00 in Snow Light Snow
12:55 AM 15.1 °F - 12.0 °F 88% 30.08 in 8.0 mi Calm Calm - 0.00 in   Partly Cloudy
1:55 AM 15.1 °F 9.4 °F 12.0 °F 88% 30.06 in 9.0 mi North 3.5 mph - N/A   Mostly Cloudy
2:55 AM 15.1 °F - 12.0 °F 88% 30.06 in 5.0 mi Calm Calm - N/A   Overcast
3:55 AM 14.0 °F 8.2 °F 10.9 °F 88% 30.06 in 4.0 mi East 3.5 mph - N/A   Overcast
4:15 AM 14.0 °F 8.2 °F 10.4 °F 86% 29.98 in 2.5 mi ESE 3.5 mph - 0.00 in Snow Light Snow
4:50 AM 12.2 °F 6.1 °F 10.4 °F 92% 29.98 in 3.0 mi East 3.5 mph - 0.00 in   Overcast
4:55 AM 12.0 °F 5.9 °F 9.0 °F 88% 30.09 in 3.0 mi East 3.5 mph - 0.00 in   Overcast
5:55 AM 10.0 °F - 8.1 °F 92% 30.08 in 6.0 mi Calm Calm - N/A   Scattered Clouds
6:55 AM 8.1 °F - 6.1 °F 92% 30.09 in 5.0 mi Calm Calm - N/A   Mostly Cloudy
7:55 AM 12.0 °F 5.9 °F 9.0 °F 88% 30.09 in 7.0 mi West 3.5 mph - N/A   Mostly Cloudy
8:55 AM 16.0 °F 6.3 °F 12.0 °F 84% 30.09 in 10.0 mi West 6.9 mph - N/A   Overcast
9:55 AM 18.0 °F 11.1 °F 12.9 °F 81% 30.08 in 8.0 mi WSW 4.6 mph - N/A   Overcast
10:15 AM 17.6 °F - 12.2 °F 79% 29.98 in 7.0 mi Calm Calm - N/A   Mostly Cloudy
10:28 AM 19.4 °F - 14.0 °F 80% 29.98 in 10.0 mi Calm Calm - N/A   Scattered Clouds
10:55 AM 21.9 °F - 15.1 °F 75% 30.07 in 10.0 mi Calm Calm - N/A   Clear
11:55 AM 21.9 °F 15.7 °F 16.0 °F 78% 30.06 in 10.0 mi South 4.6 mph - N/A   Clear
12:55 PM 26.1 °F 18.4 °F 18.0 °F 71% 30.01 in 10.0 mi WSW 6.9 mph - N/A   Clear
1:55 PM 27.0 °F 21.6 °F 19.9 °F 75% 30.00 in 10.0 mi South 4.6 mph - N/A   Partly Cloudy
2:55 PM 28.0 °F 20.0 °F 21.9 °F 78% 29.97 in 10.0 mi South 8.1 mph - N/A   Clear
3:55 PM 27.0 °F 19.5 °F 21.0 °F 78% 29.96 in 10.0 mi SSE 6.9 mph - N/A   Clear
4:55 PM 26.1 °F 19.4 °F 19.9 °F 78% 29.95 in 10.0 mi SE 5.8 mph - N/A   Clear
5:55 PM 23.0 °F 18.4 °F 17.1 °F 78% 29.95 in 10.0 mi Variable 3.5 mph - N/A   Clear
6:55 PM 19.0 °F 12.3 °F 15.1 °F 85% 29.96 in 10.0 mi East 4.6 mph - N/A   Clear
7:55 PM 19.9 °F - 16.0 °F 85% 29.94 in 10.0 mi Calm Calm - N/A   Clear
8:55 PM 18.0 °F - 16.0 °F 92% 29.93 in 10.0 mi Calm Calm - N/A   Overcast
9:55 PM 16.0 °F - 12.9 °F 88% 29.91 in 10.0 mi Calm Calm - N/A   Mostly Cloudy
10:55 PM 14.0 °F - 12.0 °F 92% 29.90 in 10.0 mi Calm Calm - N/A   Scattered Clouds
11:55 PM 10.0 °F - 8.1 °F 92% 29.88 in 10.0 mi Calm Calm - N/A   Clear